Location: Catacaguana
(10.4120°N, 66.7591°W)
Time: 06:28:25
(UTC+00:00)

USA 238 - Pass Details

Date: 27 May 2022
Orbit: 970 x 1242 km, 63.4° (Epoch: 04 May)

Event Time Altitude Azimuth Distance (km) Brightness Sun altitude
Rises 01:02:25 0° 343° (NNW) 4,088 7.4 -31.2°
Reaches altitude 10° 01:05:11 10° 347° (NNW) 3,151 6.7 -31.8°
Enters shadow 01:11:46 57° 35° (NE) 1,432 4.2 -33.1°
